Home > Weather > Gaziantep > Past weeks

Flag for Turkey Weather for the Past 2 Weeks in Gaziantep, Turkey

Now
45 °F

Clear.


Feels Like: 45 °F
Forecast: 47 / 71 °F
Wind: No wind

Location: Gaziantep Airport

Current Time: May 7, 2016 at 4:30:27 AM

Latest Report: May 7, 2016 at 3:50 AM


Visibility: 10 mi

Pressure: 29.86 "Hg (26.90 "Hg at 856m altitude)

Humidity: 87%

Dew Point: 41 °F

Location of GaziantepLocation

Historic Weather in Gaziantep — Graph

°F

Gaziantep Temperature Yesterday

Maximum temperature yesterday: 63 °F (at 3:50 PM)
Minimum temperature yesterday: 45 °F (at 4:50 AM)
Average temperature yesterday: 54 °F

High & Low Weather Summary for the Past Weeks

 TemperatureHumidityPressure
High86 °F (May 2, 5:20 PM)93% (May 7, 2:50 AM)30.09 "Hg (May 7, 2:50 AM)
Low37 °F (Apr 23, 3:50 AM)6% (Apr 29, 3:50 PM)29.65 "Hg (Apr 25, 12:20 PM)
Average65 °F42%29.86 "Hg
* Reported Apr 22 2:20 AM — May 7 2:50 AM, Gaziantep, Weather by CustomWeather, © 2016

Note: Actual official high and low records may vary slightly from our data, if they occured in-between our weather recording intervals... More about our weather records

Advertising

Gaziantep Weather History for the Previous 24 Hours

Scroll right to see more
 ConditionsComfort  
Time TempWeatherWind HumidityBarometerVisibility
2:50 AM
Sat, May 7
45 °FPassing clouds.No wind93%29.86 "HgN/A
2:20 AM45 °FPassing clouds.2 mph87%29.86 "HgN/A
1:50 AM45 °FPassing clouds.No wind87%29.86 "HgN/A
1:20 AM46 °FPassing clouds.3 mph87%29.86 "HgN/A
12:50 AM46 °FPassing clouds.5 mph87%29.89 "HgN/A
12:20 AM46 °FPassing clouds.5 mph87%29.89 "HgN/A
11:50 PM
Fri, May 6
46 °FPassing clouds.5 mph87%29.89 "HgN/A
11:20 PM46 °FPassing clouds.6 mph87%29.89 "HgN/A
10:50 PM48 °FPassing clouds.6 mph87%29.89 "HgN/A
10:20 PM48 °FPassing clouds.3 mph87%29.89 "HgN/A
9:50 PM50 °FPassing clouds.2 mph82%29.89 "HgN/A
9:20 PM50 °FPassing clouds.5 mph88%29.89 "HgN/A
8:50 PM54 °FPassing clouds.1 mph77%29.86 "HgN/A
8:20 PM54 °FScattered clouds.No wind77%29.86 "HgN/A
7:50 PM54 °FScattered clouds.3 mph77%29.83 "HgN/A
7:20 PM55 °FPartly sunny.7 mph72%29.83 "HgN/A
6:50 PM57 °FPartly sunny.9 mph67%29.83 "HgN/A
6:20 PM59 °FPartly sunny.12 mph51%29.80 "HgN/A
5:50 PM61 °FPartly sunny.12 mph59%29.80 "HgN/A
5:20 PM59 °FPartly sunny.13 mph55%29.83 "HgN/A
4:50 PM61 °FBroken clouds.12 mph55%29.80 "HgN/A
4:20 PM61 °FBroken clouds.12 mph55%29.80 "HgN/A
3:50 PM63 °FBroken clouds.12 mph56%29.80 "HgN/A
3:20 PM61 °FBroken clouds.10 mph55%29.80 "HgN/A
2:50 PM61 °FBroken clouds.9 mph55%29.83 "HgN/A
2:20 PM61 °FBroken clouds.9 mph55%29.83 "HgN/A
1:50 PM61 °FBroken clouds.10 mph55%29.83 "HgN/A
1:20 PM61 °FBroken clouds.12 mph55%29.83 "HgN/A
12:50 PM57 °FBroken clouds.14 mph63%29.83 "HgN/A
12:20 PM59 °FBroken clouds.9 mph63%29.83 "HgN/A
11:50 AM55 °FBroken clouds.7 mph72%29.83 "HgN/A
11:20 AM52 °FPartly sunny.8 mph82%29.86 "HgN/A
10:50 AM50 °FThunderstorms. Partly sunny.15 mph82%29.89 "HgN/A
10:20 AM50 °FThunderstorms. Partly sunny.12 mph88%29.89 "Hg4 mi
9:50 AM50 °FThunderstorms. Partly sunny.15 mph88%29.89 "Hg5 mi
9:20 AM50 °FBroken clouds.20 mph82%29.86 "Hg4 mi
8:50 AM59 °FPartly sunny.6 mph63%29.83 "HgN/A
8:20 AM59 °FBroken clouds.5 mph63%29.83 "HgN/A
7:50 AM59 °FBroken clouds.5 mph68%29.83 "HgN/A
7:20 AM54 °FBroken clouds.No wind77%29.83 "HgN/A
6:50 AM50 °FBroken clouds.No wind82%29.83 "HgN/A
6:20 AM48 °FPassing clouds.1 mph87%29.83 "HgN/A
5:50 AM46 °FPassing clouds.5 mph87%29.83 "HgN/A
5:20 AM46 °FPassing clouds.3 mph82%29.83 "HgN/A
4:50 AM45 °FClear.1 mph87%29.83 "Hg10 mi
4:20 AM46 °FPassing clouds.No wind87%29.80 "HgN/A
Weather by CustomWeather, © 2016

See weather overviewHow to use our weather pages